Regional Weather Roundup
Issued by NWS Columbia, SC

Home | Current Version | Previous Version | Text Only | Print | Product List | Glossary On
Versions: 1 2 3 4 5 6 7 8 9 10 11 12 13 14 15 16 17 18 19 20 21 22 23 24 25 26 27 28 29 30 31 32 33 34 35 36 37 38 39 40 41 42 43 44 45 46 47 48 49 50
000
ASUS42 KCAE 221210
RWRCAE
REGIONAL WEATHER ROUNDUP
NATIONAL WEATHER SERVICE COLUMBIA SC
800 AM EDT MON SEP 22 2014

NOTE: "FAIR" INDICATES FEW OR NO CLOUDS BELOW 12,000 FEET WITH NO
SIGNIFICANT WEATHER AND/OR OBSTRUCTIONS TO VISIBILITY.

NOT ALL STATIONS ARE QUALITY CONTROLLED BY THE NATIONAL
WEATHER SERVICE. USE DATA WITH CAUTION...ESPECIALLY
DEWPOINT OBSERVATIONS.

SCZ001>056-GAZ040-063>065-077-221300-
...UPSTATE SOUTH CAROLINA...

CITY           SKY/WX    TMP DP  RH WIND       PRES   REMARKS
ANDERSON       PTCLDY    65  62  90 E3        30.03R
6HR MIN TEMP:  65; 6HR MAX TEMP:  73;

LIBERTY        FAIR      60  57  92 MISG      30.03R
6HR MIN TEMP:  60; 6HR MAX TEMP:  87;

SPARTANBURG    FAIR      64  61  88 CALM      30.04R
CLEMSON        CLEAR     67  54  63 N3        30.04R
6HR MIN TEMP:  67; 6HR MAX TEMP:  75;

GREENVILLE     CLEAR     65  50  58 NE3       30.05R
6HR MIN TEMP:  64; 6HR MAX TEMP:  73;

GREENWOOD      CLOUDY    70  61  73 N3        30.04R
6HR MIN TEMP:  67; 6HR MAX TEMP:  74;

GREER          CLEAR     62  54  74 CALM      30.03R
6HR MIN TEMP:  61; 6HR MAX TEMP:  71;

ROCK HILL      PTCLDY    66  53  63 N8        30.03R
6HR MIN TEMP:  65; 6HR MAX TEMP:  73;

CHESTER        FAIR      66  54  63 NE3       30.08R
LAURENS        PTSUNNY   64  52  63 N6        30.04R


...CENTRAL SOUTH CAROLINA...

CITY           SKY/WX    TMP DP  RH WIND       PRES   REMARKS
COLUMBIA APT   MOCLDY    70  67  90 NW3       29.99R
6HR MIN TEMP:  70; 6HR MAX TEMP:  77; 6HR PCP:  0.03;

COLUMBIA OWENS MOCLDY    72  68  87 CALM      29.99R
6HR MIN TEMP:  71; 6HR MAX TEMP:  77; 6HR PCP:  0.03;

DARLINGTON     MOCLDY    68  63  83 CALM      30.02R
6HR MIN TEMP:  66; 6HR MAX TEMP:  73; 6HR PCP:  0.04;

FLORENCE       CLOUDY    73  65  75 NW8       29.99R
6HR MIN TEMP:  70; 6HR MAX TEMP:  74;

MCENTIRE ANGB  MOCLDY    70  69  97 CALM      30.00R
6HR MIN TEMP:  70; 6HR MAX TEMP:  74; 6HR PCP:  0.02;

ORANGEBURG     PTCLDY    71  63  75 SW5       30.00R
6HR MIN TEMP:  70; 6HR MAX TEMP:  72;

SUMTER SHAW    CLOUDY    69  67  92 N8        29.98R
6HR MIN TEMP:  69; 6HR MAX TEMP:  74; 6HR PCP:  0.05;

NEWBERRY       PTSUNNY   70  61  73 NE5       30.05R
AIKEN          FAIR      70  70 100 CALM      30.04R
BARNWELL       FAIR      70  64  83 CALM      30.00R
MANNING        CLOUDY    73  68  83 CALM      29.99R
CAMDEN         FAIR      68  63  83 CALM      30.02R
LANCASTER      FAIR      66  61  82 CALM      30.02R
WINNSBORO      FAIR      68  55  64 N6        30.01R


...EASTERN AND COASTAL SOUTH CAROLINA...

CITY           SKY/WX    TMP DP  RH WIND       PRES   REMARKS
MYRTLE BEACH   MOSUNNY   72  63  73 NW7       29.97R
N MYRTLE BCH   SUNNY     72  64  76 W3        29.97R
6HR MIN TEMP:  71; 6HR MAX TEMP:  76;

CONWAY         FAIR      70  68  94 CALM      29.98R
MARION         PTSUNNY   72  64  78 W3        29.98R
HARTSVILLE     CLOUDY    68  52  56 CALM      30.02R
FLORENCE       CLOUDY    73  65  75 NW8       29.99R
6HR MIN TEMP:  70; 6HR MAX TEMP:  74;

DARLINGTON     MOCLDY    68  63  83 CALM      30.02R
6HR MIN TEMP:  66; 6HR MAX TEMP:  73; 6HR PCP:  0.04;

CHARLESTON APT MOSUNNY   72  62  71 W6        29.99R
6HR MIN TEMP:  70; 6HR MAX TEMP:  74;

MOUNT PLEASANT FAIR      73  63  68 CALM      29.99S
WALTERBORO     SUNNY     68 N/A N/A CALM      30.01R
BEAUFORT       CLEAR     70  64  81 VRB3      30.00R
6HR MIN TEMP:  67; 6HR MAX TEMP:  72;



...EASTERN GEORGIA...

CITY           SKY/WX    TMP DP  RH WIND       PRES   REMARKS
AUGUSTA BUSH F MOCLDY    69  64  84 S3        29.99R
6HR MIN TEMP:  67; 6HR MAX TEMP:  73;

AUGUSTA DANIEL MOCLDY    73  63  70 CALM      30.01R
6HR MIN TEMP:  73; 6HR MAX TEMP:  75;

THOMSON        MOCLDY    71  69  92 NW3       30.05R
6HR MIN TEMP:  69; 6HR MAX TEMP:  76;

WASHINGTON     FAIR      70  70 100 NW3       30.02R THUNDER
CLAXTON        FAIR     N/A N/A N/A CALM      30.01R
SYLVANIA       PTSUNNY   71  69  94 CALM      30.01R
6HR MIN TEMP:  69; 6HR MAX TEMP:  75;

STATESBORO     PTCLDY    67  64  90 CALM      30.01R
6HR MIN TEMP:  65; 6HR MAX TEMP:  71;

SAVANNAH       PTCLDY    68  61  78 SW3       30.01R
6HR MIN TEMP:  66; 6HR MAX TEMP:  71;



...SOUTHERN NORTH CAROLINA...

CITY           SKY/WX    TMP DP  RH WIND       PRES   REMARKS
CHARLOTTE      PTCLDY    62  54  74 N3        30.03R
6HR MIN TEMP:  61; 6HR MAX TEMP:  72;

MONROE         CLEAR     67  53  61 N6        30.02R
6HR MIN TEMP:  65; 6HR MAX TEMP:  73;

WADESBORO      MOSUNNY   66  59  77 CALM      30.02R
6HR MIN TEMP:  66; 6HR MAX TEMP:  75;

ROCKINGHAM     CLOUDY    69  56  65 N3        30.01R
6HR MIN TEMP:  69; 6HR MAX TEMP:  73;

RUTHERFORDTON  CLEAR     58  52  78 CALM      30.05R
6HR MIN TEMP:  58; 6HR MAX TEMP:  71;

ASHEVILLE      CLEAR     57  49  74 N7        30.09R
6HR MIN TEMP:  55; 6HR MAX TEMP:  66;


$$



USA.gov is the U.S. government's official web portal to all federal, state and local government web resources and services.